[[{"header":{"parameterUnit":"m.s-1","parameterCategory":1,"la1":30.2991,"la2":30.254,"lo1":-89.0895,"lo2":-89.0444,"dy":0.0017,"dx":0.0017,"nx":28,"ny":28,"refTime":"2026-01-04T03:00:00:Z","depth":0,"parameterNumber":2,"parameterNumberName":"U-component_of_WINDS"},"data":[0,0,0,0,0,0,0,0,0,0,0,0,0,0,0,0,0,0,0,0,0,0,0,0,0,0,0,0,0,0,0,0,0,0,0,0,0,0,0,0,0,0,0,0,0,0,0,0,0,0,0,0,0,0,0,0,0,0,-1.6087,-1.6087,0,-1.6097,-1.6098,-1.6098,-1.6043,-1.6042,-1.604,-1.6039,-1.6051,-1.6053,-1.6055,0,0,0,0,0,0,0,0,0,0,0,0,0,-1.6022,-1.6023,-1.6087,-1.6087,-1.6087,-1.6097,-1.6098,-1.6098,-1.6044,-1.6042,-1.604,-1.6038,-1.605,-1.6053,-1.6055,0,0,0,0,0,0,0,0,0,0,0,0,0,-1.6043,-1.6024,-1.6087,-1.6061,-1.6059,-1.6097,-1.6098,-1.6098,-1.6044,-1.6042,-1.6039,-1.6037,-1.605,-1.6052,-1.6055,-1.6119,0,0,-1.6063,-1.6064,0,0,0,0,0,0,0,0,-1.6042,-1.6045,-1.6065,-1.6063,-1.6061,-1.6067,-1.6079,-1.6105,-1.6045,-1.605,-1.6039,-1.6036,-1.6058,-1.606,-1.6067,-1.6119,-1.612,-1.6063,-1.6065,-1.6066,-1.6067,0,0,0,0,0,0,0,-1.604,-1.6045,-1.6091,-1.6065,-1.6063,-1.605,-1.605,-1.6084,-1.6067,-1.6049,-1.6045,-1.6047,-1.6057,-1.6065,-1.6067,-1.612,-1.6063,-1.6066,-1.6067,-1.6068,-1.6226,-1.6228,0,0,0,0,0,0,-1.6042,-1.6044,-1.6091,-1.6091,-1.6045,-1.6053,-1.6054,-1.6067,-1.6067,-1.6064,-1.6049,-1.6045,-1.6061,-1.6064,-1.6067,-1.6143,-1.6066,-1.6069,-1.607,-1.6223,-1.6226,-1.6229,0,0,0,0,0,0,-1.6041,-1.6047,-1.609,-1.6067,-1.6071,-1.6057,-1.6072,-1.6069,-1.6077,-1.6067,-1.6064,-1.606,-1.606,-1.6064,-1.6106,-1.6142,-1.607,-1.6072,-1.622,-1.6224,-1.6228,-1.6293,0,0,0,0,0,0,-1.6039,-1.6047,-1.607,-1.6067,-1.6073,-1.6129,-1.6075,-1.6071,-1.6081,-1.6075,-1.6076,-1.6074,-1.6058,-1.6103,-1.6109,-1.6145,-1.6075,-1.6217,-1.6222,-1.6227,-1.6288,-1.6299,-1.6308,0,0,0,0,0,-1.6037,-1.6088,-1.6072,-1.6078,-1.6102,-1.6131,-1.6134,-1.6114,-1.6084,-1.6108,-1.6102,-1.6074,-1.6137,-1.6108,-1.6114,-1.6151,-1.6215,-1.6221,-1.6226,-1.6283,-1.6297,-1.6308,0,0,0,0,0,0,-1.6096,-1.6087,-1.6069,-1.6121,-1.6127,-1.6122,-1.6151,-1.6129,-1.6144,-1.6138,-1.6112,-1.6113,-1.6161,-1.616,-1.6127,-1.6213,-1.6171,-1.6178,-1.6212,-1.6225,-1.6235,-1.6234,-1.6077,0,0,0,0,0,-1.6115,-1.6139,-1.613,-1.6177,-1.6181,-1.6166,-1.6178,-1.6162,-1.6167,-1.617,-1.6167,-1.6174,-1.6195,-1.621,-1.6229,-1.6287,-1.6287,-1.6316,-1.6326,-1.6335,-1.6342,-1.6374,-1.6387,-1.6248,-1.6248,-1.6248,0,0,-1.6154,-1.6153,-1.6169,-1.6189,-1.6192,-1.6218,-1.6168,-1.6198,-1.6217,-1.6175,-1.6215,-1.6213,-1.6219,-1.6271,-1.6293,-1.6272,-1.638,-1.6342,-1.6349,-1.6351,-1.6381,-1.6394,-1.6406,-1.6252,-1.6251,-1.6251,0,0,-1.624,-1.6241,-1.628,-1.6284,-1.6289,-1.6279,-1.6288,-1.6287,-1.6284,-1.6324,-1.6293,-1.6316,-1.6353,-1.6359,-1.6367,-1.6455,-1.6431,-1.6462,-1.6516,-1.6548,-1.6559,-1.6568,-1.6601,-1.6613,-1.6469,-1.6469,-1.6469,0,-1.6289,-1.6326,-1.6303,-1.6335,-1.6345,-1.6307,-1.6347,-1.6352,-1.6364,-1.6372,-1.6347,-1.6394,-1.6395,-1.6448,-1.647,-1.6477,-1.6488,-1.6462,-1.6559,-1.6568,-1.6577,-1.6608,-1.662,-1.6473,-1.6473,-1.6472,-1.6472,0,-1.6386,-1.6413,-1.6444,-1.6456,-1.6469,-1.6505,-1.6488,-1.6504,-1.6488,-1.648,-1.6522,-1.6523,-1.6542,-1.6553,-1.6536,-1.6604,-1.659,-1.6563,-1.652,-1.6594,-1.6623,-1.6634,-1.6479,-1.6477,-1.6476,-1.6475,0,0,-1.6509,-1.6508,-1.652,-1.6525,-1.6528,-1.6549,-1.6583,-1.6602,-1.6617,-1.6626,-1.6655,-1.6688,-1.6662,-1.6672,-1.6656,-1.6683,-1.6755,-1.6652,-1.6652,-1.6672,-1.683,-1.6852,-1.6865,-1.6739,-1.6741,-1.6742,-1.683,0,-1.6593,-1.6652,-1.6632,-1.6692,-1.6717,-1.6682,-1.6712,-1.6718,-1.6712,-1.6733,-1.6727,-1.6751,-1.6715,-1.672,-1.6746,-1.6741,-1.6787,-1.6734,-1.6766,-1.6768,-1.6767,-1.688,-1.6903,-1.6985,-1.6841,-1.6843,-1.6844,0,-1.6699,-1.6713,-1.6775,-1.6775,-1.6784,-1.6812,-1.6828,-1.6848,-1.6854,-1.6848,-1.6859,-1.6837,-1.6872,-1.6829,-1.6877,-1.6842,-1.6854,-1.6853,-1.6856,-1.6859,-1.6811,-1.6887,-1.7011,-1.7024,-1.6861,-1.686,-1.6859,0,-1.6784,-1.6817,-1.6859,-1.6865,-1.6865,-1.6886,-1.6887,-1.6891,-1.6903,-1.6917,-1.6925,-1.6943,-1.6953,-1.6968,-1.6953,-1.6922,-1.7004,-1.6959,-1.7001,-1.7001,-1.702,-1.7019,-1.7148,-1.7026,-1.7026,-1.7026,-1.7026,0,-1.688,-1.692,-1.6897,-1.6923,-1.6967,-1.6945,-1.6989,-1.6986,-1.699,-1.7015,-1.6986,-1.7011,-1.6988,-1.7011,-1.6999,-1.7042,-1.7046,-1.7043,-1.704,-1.7046,-1.7047,-1.7054,-1.7049,-1.7029,-1.7029,-1.7028,-1.7027,0,-1.6982,-1.6968,-1.7012,-1.7009,-1.7009,-1.7042,-1.7039,-1.7064,-1.7056,-1.7088,-1.7095,-1.7083,-1.7108,-1.7094,-1.712,-1.7112,-1.7168,-1.7156,-1.7166,-1.7163,-1.7206,-1.7203,-1.7345,-1.7364,-1.7229,-1.723,-1.7232,0,-1.7045,-1.7075,-1.7075,-1.709,-1.7093,-1.7117,-1.713,-1.7109,-1.7124,-1.7134,-1.7157,-1.718,-1.7197,-1.724,-1.7234,-1.7254,-1.7243,-1.7292,-1.7246,-1.7252,-1.7245,-1.7244,-1.7247,-1.7301,-1.7303,-1.7304,-1.7305,0,-1.7159,-1.715,-1.7169,-1.7187,-1.7203,-1.7215,-1.7226,-1.724,-1.7219,-1.7237,-1.7263,-1.7276,-1.7303,-1.7327,-1.7344,-1.7346,-1.7323,-1.732,-1.7331,-1.7338,-1.7343,-1.7342,-1.7192,-1.7317,-1.7316,-1.7315,-1.7314,-1.7314,-1.7243,-1.7269,-1.7273,-1.7296,-1.7301,-1.7312,-1.7335,-1.733,-1.735,-1.7371,-1.7357,-1.7388,-1.7394,-1.7415,-1.742,-1.7445,-1.7425,-1.7441,-1.7445,-1.7449,-1.7456,-1.7338,-1.7448,-1.7447,-1.7447,-1.7447,-1.7446,0,-1.7356,-1.7357,-1.7378,-1.7394,-1.7412,-1.7388,-1.7398,-1.7415,-1.7442,-1.745,-1.7467,-1.7498,-1.752,-1.7517,-1.7538,-1.7558,-1.7548,-1.7564,-1.7563,-1.7564,-1.7471,-1.746,-1.7572,-1.7572,-1.7572,-1.7572,-1.7572,-1.7572,-1.7417,-1.7459,-1.7451,-1.7496,-1.7497,-1.7526,-1.7534,-1.7544,-1.755,-1.7585,-1.7604,-1.7601,-1.7604,-1.7626,-1.7646,-1.7644,-1.7654,-1.7674,-1.7669,-1.7583,-1.757,-1.7559,-1.7548,-1.7676,-1.7677,-1.776,-1.7761,-1.7761]},{"header":{"parameterUnit":"m.s-1","parameterCategory":1,"la1":30.2991,"la2":30.254,"lo1":-89.0895,"lo2":-89.0444,"dy":0.0017,"dx":0.0017,"nx":28,"ny":28,"refTime":"2026-01-04T03:00:00:Z","depth":0,"parameterNumber":3,"parameterNumberName":"V-component_of_WINDS"},"data":[0,0,0,0,0,0,0,0,0,0,0,0,0,0,0,0,0,0,0,0,0,0,0,0,0,0,0,0,0,0,0,0,0,0,0,0,0,0,0,0,0,0,0,0,0,0,0,0,0,0,0,0,0,0,0,0,0,0,-0.1831,-0.1831,0,-0.1822,-0.1821,-0.1821,-0.1782,-0.1781,-0.178,-0.1779,-0.177,-0.177,-0.1771,0,0,0,0,0,0,0,0,0,0,0,0,0,-0.1816,-0.1817,-0.1831,-0.1831,-0.1831,-0.1822,-0.1821,-0.1821,-0.1782,-0.1781,-0.178,-0.1779,-0.177,-0.177,-0.1771,0,0,0,0,0,0,0,0,0,0,0,0,0,-0.1816,-0.1817,-0.1832,-0.1811,-0.1809,-0.1822,-0.1821,-0.1821,-0.1782,-0.1781,-0.178,-0.1778,-0.1769,-0.177,-0.1771,-0.1804,0,0,-0.1774,-0.1774,0,0,0,0,0,0,0,0,-0.1816,-0.1817,-0.1814,-0.1812,-0.181,-0.1802,-0.1813,-0.1815,-0.1783,-0.1792,-0.1779,-0.1778,-0.1782,-0.1781,-0.1783,-0.1804,-0.1803,-0.1774,-0.1775,-0.1775,-0.1775,0,0,0,0,0,0,0,-0.1816,-0.1817,-0.1828,-0.1814,-0.1811,-0.1801,-0.18,-0.1813,-0.1795,-0.1791,-0.1789,-0.1788,-0.178,-0.1782,-0.1782,-0.1803,-0.1774,-0.1775,-0.1775,-0.1776,-0.1849,-0.185,0,0,0,0,0,0,-0.1819,-0.1817,-0.1828,-0.1827,-0.181,-0.1803,-0.1801,-0.1806,-0.1794,-0.1791,-0.1789,-0.1786,-0.1781,-0.1781,-0.1782,-0.1819,-0.1775,-0.1776,-0.1776,-0.1848,-0.1849,-0.1851,0,0,0,0,0,0,-0.1819,-0.1821,-0.1828,-0.1822,-0.1822,-0.1805,-0.181,-0.1806,-0.1808,-0.1793,-0.1789,-0.1794,-0.178,-0.178,-0.1798,-0.1818,-0.1776,-0.1777,-0.1846,-0.1848,-0.185,-0.1893,0,0,0,0,0,0,-0.1819,-0.1821,-0.1833,-0.1822,-0.1822,-0.1846,-0.1811,-0.1807,-0.1809,-0.1805,-0.1796,-0.1794,-0.1779,-0.1797,-0.1799,-0.1818,-0.1778,-0.1844,-0.1847,-0.1849,-0.189,-0.1897,-0.1902,0,0,0,0,0,-0.1819,-0.1846,-0.1834,-0.1836,-0.1837,-0.1847,-0.1847,-0.1829,-0.1811,-0.1823,-0.1813,-0.1794,-0.1815,-0.1799,-0.1801,-0.1821,-0.1843,-0.1846,-0.1849,-0.1887,-0.1895,-0.1902,0,0,0,0,0,0,-0.1861,-0.1845,-0.1831,-0.1856,-0.1853,-0.184,-0.1855,-0.1838,-0.1841,-0.1837,-0.1815,-0.1813,-0.1834,-0.1829,-0.1812,-0.1851,-0.1826,-0.1829,-0.1854,-0.1861,-0.1867,-0.1868,-0.1778,0,0,0,0,0,-0.1873,-0.1882,-0.1867,-0.1891,-0.189,-0.1873,-0.1876,-0.1862,-0.1859,-0.1857,-0.1849,-0.1846,-0.1852,-0.1856,-0.1861,-0.1889,-0.1886,-0.1903,-0.1909,-0.1914,-0.1918,-0.1931,-0.1939,-0.1861,-0.1861,-0.1861,0,0,-0.1899,-0.1891,-0.1898,-0.1899,-0.1895,-0.1905,-0.1872,-0.1884,-0.1891,-0.1859,-0.1876,-0.1869,-0.1864,-0.1887,-0.1897,-0.1884,-0.1938,-0.1918,-0.1922,-0.1923,-0.1935,-0.1943,-0.1949,-0.1863,-0.1863,-0.1863,0,0,-0.195,-0.1945,-0.1964,-0.196,-0.1954,-0.1943,-0.1947,-0.1936,-0.1931,-0.1947,-0.1923,-0.193,-0.1941,-0.1938,-0.1938,-0.1987,-0.1969,-0.1989,-0.2021,-0.2035,-0.2041,-0.2046,-0.2063,-0.2069,-0.1993,-0.1993,-0.1993,0,-0.1983,-0.1996,-0.1976,-0.1989,-0.1989,-0.196,-0.1979,-0.1976,-0.1973,-0.1974,-0.1959,-0.1971,-0.1966,-0.1987,-0.1999,-0.2,-0.2004,-0.199,-0.2041,-0.2046,-0.2051,-0.2067,-0.2074,-0.1995,-0.1995,-0.1995,-0.1994,0,-0.2037,-0.2046,-0.2062,-0.2058,-0.206,-0.2076,-0.2058,-0.2063,-0.2048,-0.2038,-0.2054,-0.2046,-0.2048,-0.2052,-0.2039,-0.2072,-0.2063,-0.2045,-0.2019,-0.2061,-0.2076,-0.2082,-0.1999,-0.1998,-0.1997,-0.1996,0,0,-0.2116,-0.2099,-0.2106,-0.2103,-0.2094,-0.2101,-0.2114,-0.2116,-0.212,-0.2118,-0.2129,-0.2138,-0.2121,-0.2121,-0.2106,-0.2118,-0.2156,-0.2098,-0.2098,-0.2109,-0.2191,-0.2206,-0.2213,-0.2144,-0.2145,-0.2146,-0.2192,0,-0.2165,-0.2188,-0.2169,-0.2195,-0.2203,-0.2175,-0.2187,-0.2182,-0.2172,-0.2178,-0.2167,-0.2174,-0.215,-0.215,-0.216,-0.215,-0.2173,-0.2146,-0.2154,-0.2155,-0.2157,-0.2221,-0.2236,-0.228,-0.2197,-0.2198,-0.2199,0,-0.2226,-0.2225,-0.2252,-0.224,-0.2242,-0.2254,-0.2253,-0.2258,-0.2252,-0.2244,-0.2243,-0.2225,-0.2237,-0.2211,-0.2227,-0.221,-0.2212,-0.2207,-0.2208,-0.2208,-0.218,-0.2223,-0.2293,-0.23,-0.2208,-0.2207,-0.2207,0,-0.2281,-0.2287,-0.2304,-0.2302,-0.2288,-0.2297,-0.2291,-0.2284,-0.2285,-0.2284,-0.2285,-0.2286,-0.2287,-0.2287,-0.227,-0.2252,-0.2288,-0.2261,-0.2282,-0.2283,-0.2292,-0.2291,-0.2363,-0.2292,-0.2292,-0.2292,-0.2292,0,-0.2338,-0.2355,-0.2328,-0.2338,-0.2357,-0.2334,-0.2353,-0.2345,-0.2338,-0.2346,-0.2322,-0.233,-0.2306,-0.2311,-0.2297,-0.2312,-0.2313,-0.2307,-0.2303,-0.2309,-0.231,-0.2311,-0.2307,-0.2294,-0.2293,-0.2293,-0.2293,0,-0.2403,-0.2385,-0.2402,-0.2386,-0.2383,-0.2397,-0.2384,-0.2393,-0.2381,-0.2391,-0.2392,-0.2374,-0.2379,-0.2361,-0.2363,-0.2353,-0.2376,-0.2367,-0.2378,-0.2376,-0.2398,-0.2396,-0.2473,-0.2482,-0.2405,-0.2406,-0.2407,0,-0.2441,-0.2453,-0.2439,-0.2442,-0.2438,-0.2444,-0.2445,-0.2423,-0.2425,-0.2418,-0.2428,-0.243,-0.2431,-0.244,-0.2427,-0.2428,-0.2419,-0.2446,-0.2419,-0.2425,-0.242,-0.2419,-0.242,-0.2452,-0.2453,-0.2453,-0.2454,0,-0.251,-0.25,-0.2503,-0.2502,-0.2504,-0.2502,-0.2499,-0.2503,-0.2479,-0.2483,-0.2487,-0.2488,-0.2489,-0.2492,-0.249,-0.2484,-0.2465,-0.2462,-0.2467,-0.2474,-0.248,-0.2477,-0.2394,-0.2461,-0.246,-0.246,-0.2459,-0.2459,-0.2562,-0.2572,-0.2563,-0.2567,-0.2561,-0.2559,-0.2566,-0.2554,-0.2557,-0.2557,-0.2543,-0.255,-0.2542,-0.2537,-0.2533,-0.2538,-0.2525,-0.2533,-0.2534,-0.2537,-0.2541,-0.2479,-0.2537,-0.2537,-0.2537,-0.2537,-0.2536,0,-0.263,-0.2622,-0.2626,-0.2622,-0.2624,-0.2605,-0.26,-0.2603,-0.261,-0.2604,-0.2605,-0.2609,-0.2611,-0.2597,-0.2598,-0.2604,-0.2595,-0.2605,-0.2605,-0.2603,-0.2552,-0.2547,-0.2612,-0.2612,-0.2612,-0.2612,-0.2612,-0.2612,-0.2666,-0.2681,-0.267,-0.2682,-0.2674,-0.268,-0.2679,-0.2676,-0.2671,-0.2677,-0.2678,-0.2669,-0.2659,-0.2658,-0.2659,-0.2655,-0.2656,-0.2669,-0.2662,-0.2614,-0.2607,-0.26,-0.2596,-0.267,-0.267,-0.2713,-0.2714,-0.2714]}]]